[[{"header":{"parameterUnit":"m.s-1","parameterCategory":1,"la1":30.2992,"la2":30.254,"lo1":-89.0895,"lo2":-89.0443,"dy":0.0025,"dx":0.0025,"nx":19,"ny":19,"refTime":"2026-04-08T09:00:00:Z","depth":0,"parameterNumber":2,"parameterNumberName":"U-component_of_WINDS"},"data":[0,0,0,-7.5472,-7.5474,-7.5549,-7.5549,-7.5686,-7.5688,0,0,0,0,0,0,0,0,0,0,0,-7.5474,-7.5476,-7.5472,-7.5474,-7.5549,-7.5549,-7.5686,-7.5688,0,0,0,0,0,0,0,0,0,0,0,-7.5473,-7.5475,-7.5477,-7.5475,-7.5549,-7.5549,-7.5685,-7.5614,0,0,0,0,0,0,0,0,0,0,-7.5534,-7.556,-7.5475,-7.5477,-7.5475,-7.5549,-7.5549,-7.561,-7.5619,-7.5669,0,-7.5721,0,-7.5707,-7.5699,-7.57,0,0,0,-7.5456,-7.5553,-7.5551,-7.5478,-7.5476,-7.5549,-7.551,-7.5614,-7.5624,-7.5681,-7.5722,-7.5726,-7.5709,-7.57,-7.5701,-7.6056,-7.6058,0,0,-7.5452,-7.55,-7.5545,-7.5559,-7.555,-7.5508,-7.5513,-7.562,-7.5668,-7.5723,-7.5729,-7.5711,-7.5702,-7.5703,-7.6053,-7.6056,0,0,0,-7.5452,-7.5498,-7.5493,-7.5554,-7.5565,-7.5511,-7.5516,-7.5663,-7.5657,-7.573,-7.5713,-7.5703,-7.5705,-7.605,-7.6054,-7.6226,0,0,0,-7.5449,-7.5498,-7.5492,-7.5523,-7.5564,-7.5615,-7.5558,-7.565,-7.566,-7.5712,-7.5703,-7.5707,-7.6047,-7.6052,-7.6216,-7.63,0,0,0,-7.5461,-7.5499,-7.5519,-7.5525,-7.5559,-7.5612,-7.5612,-7.5651,-7.5651,-7.57,-7.5707,-7.6046,-7.6052,-7.6206,-7.6284,-7.6408,0,0,0,-7.5487,-7.5669,-7.5522,-7.5719,-7.5559,-7.5718,-7.561,-7.5726,-7.5789,-7.5704,-7.6048,-7.6054,-7.6203,-7.6274,-7.6398,-7.6522,-7.6578,0,0,-7.5744,-7.5702,-7.5814,-7.5685,-7.5883,-7.5703,-7.5925,-7.5936,-7.5896,-7.6005,-7.6013,-7.6219,-7.6282,-7.6406,-7.6875,-7.692,0,0,0,-7.5912,-7.5993,-7.6035,-7.6098,-7.6111,-7.613,-7.6102,-7.6106,-7.6196,-7.5962,-7.6296,-7.6332,-7.6403,-7.646,-7.6498,-7.6556,-7.6082,-7.6082,-7.6081,-7.6344,-7.6285,-7.6467,-7.6418,-7.648,-7.645,-7.6495,-7.6496,-7.6416,-7.6497,-7.6528,-7.682,-7.6889,-7.6917,-7.6978,-7.6588,-7.6589,-7.659,-7.659,-7.6716,-7.6822,-7.6714,-7.6853,-7.6789,-7.6904,-7.6884,-7.6824,-7.6923,-7.679,-7.6849,-7.671,-7.6968,-7.7019,-7.6602,-7.66,-7.6599,-7.6598,-7.6597,-7.6993,-7.7034,-7.7037,-7.7123,-7.7196,-7.7139,-7.724,-7.7178,-7.712,-7.7178,-7.7206,-7.7203,-7.7193,-7.7196,-7.7197,-7.7198,-7.7199,-7.72,-7.72,-7.7279,-7.7277,-7.737,-7.7402,-7.7435,-7.7471,-7.7446,-7.7477,-7.7495,-7.7442,-7.7442,-7.7356,-7.7004,-7.6918,-7.7216,-7.7213,-7.7211,-7.721,-7.7209,-7.7679,-7.7579,-7.7723,-7.7757,-7.779,-7.7868,-7.7788,-7.7858,-7.7874,-7.7927,-7.7828,-7.7578,-7.7531,-7.75,-7.7428,-7.784,-7.784,-7.784,-7.784,-7.7914,-7.7884,-7.8017,-7.8076,-7.8126,-7.8069,-7.8235,-7.8218,-7.8184,-7.8191,-7.8123,-7.8022,-7.7993,-7.7962,-7.7921,-7.7853,-7.8364,-7.8365,-7.8365,-7.8157,-7.8129,-7.8282,-7.8248,-7.8271,-7.8292,-7.8446,-7.8519,-7.8459,-7.8385,-7.8196,-7.8174,-7.801,-7.796,-7.7881,-7.7819,-7.7693,0,0]},{"header":{"parameterUnit":"m.s-1","parameterCategory":1,"la1":30.2992,"la2":30.254,"lo1":-89.0895,"lo2":-89.0443,"dy":0.0025,"dx":0.0025,"nx":19,"ny":19,"refTime":"2026-04-08T09:00:00:Z","depth":0,"parameterNumber":3,"parameterNumberName":"V-component_of_WINDS"},"data":[0,0,0,-0.4293,-0.4295,-0.4351,-0.4351,-0.4436,-0.4436,0,0,0,0,0,0,0,0,0,0,0,-0.4283,-0.4284,-0.4293,-0.4295,-0.4351,-0.4351,-0.4435,-0.4436,0,0,0,0,0,0,0,0,0,0,0,-0.4283,-0.4284,-0.4285,-0.4295,-0.4351,-0.4351,-0.4435,-0.4389,0,0,0,0,0,0,0,0,0,0,-0.4332,-0.4329,-0.4284,-0.4285,-0.4295,-0.4351,-0.4351,-0.4386,-0.4391,-0.4415,0,-0.4437,0,-0.4438,-0.4443,-0.4443,0,0,0,-0.429,-0.4325,-0.4334,-0.4285,-0.4296,-0.4351,-0.4324,-0.4389,-0.4395,-0.4422,-0.4438,-0.4441,-0.4439,-0.4443,-0.4444,-0.4593,-0.4594,0,0,-0.4287,-0.4298,-0.4329,-0.4338,-0.4329,-0.4322,-0.4326,-0.4392,-0.4411,-0.4439,-0.4443,-0.4441,-0.4444,-0.4445,-0.4593,-0.4594,0,0,0,-0.4281,-0.4296,-0.4302,-0.4335,-0.4344,-0.4324,-0.4328,-0.4408,-0.4409,-0.4444,-0.4442,-0.4445,-0.4446,-0.4592,-0.4593,-0.465,0,0,0,-0.4279,-0.4292,-0.4301,-0.4309,-0.4343,-0.4377,-0.4343,-0.4405,-0.4412,-0.4441,-0.4445,-0.4447,-0.4591,-0.4592,-0.4646,-0.4676,0,0,0,-0.4278,-0.4292,-0.4302,-0.4309,-0.4333,-0.4375,-0.438,-0.4406,-0.4411,-0.4443,-0.4447,-0.459,-0.4592,-0.4643,-0.467,-0.4719,0,0,0,-0.4279,-0.4352,-0.4303,-0.4384,-0.4333,-0.4409,-0.4379,-0.4436,-0.447,-0.4445,-0.4591,-0.4593,-0.4641,-0.4667,-0.4716,-0.4764,-0.4785,0,0,-0.4378,-0.4365,-0.4411,-0.4369,-0.4456,-0.4399,-0.4495,-0.4517,-0.451,-0.4566,-0.457,-0.4647,-0.467,-0.4719,-0.4892,-0.4908,0,0,0,-0.4446,-0.448,-0.4501,-0.4533,-0.455,-0.4567,-0.4572,-0.458,-0.4627,-0.4541,-0.4676,-0.469,-0.4718,-0.4741,-0.4755,-0.4779,-0.4603,-0.4603,-0.4603,-0.4604,-0.459,-0.4666,-0.4658,-0.469,-0.4693,-0.4718,-0.4729,-0.4707,-0.4739,-0.4757,-0.4863,-0.489,-0.4901,-0.4926,-0.4779,-0.4779,-0.4779,-0.4779,-0.4749,-0.4795,-0.4761,-0.4823,-0.4808,-0.486,-0.4866,-0.4848,-0.4895,-0.4849,-0.4873,-0.4826,-0.4919,-0.4941,-0.4783,-0.4783,-0.4782,-0.4782,-0.4782,-0.4853,-0.4873,-0.4879,-0.4923,-0.4958,-0.4947,-0.4994,-0.4978,-0.4963,-0.4987,-0.5005,-0.5004,-0.5003,-0.4996,-0.4996,-0.4997,-0.4997,-0.4997,-0.4997,-0.496,-0.4965,-0.5005,-0.5027,-0.5045,-0.5067,-0.5069,-0.5086,-0.5102,-0.5087,-0.5087,-0.5063,-0.4929,-0.4898,-0.5003,-0.5002,-0.5001,-0.5001,-0.5,-0.5117,-0.5078,-0.5141,-0.5159,-0.5183,-0.522,-0.5197,-0.5234,-0.5245,-0.5269,-0.5238,-0.5141,-0.5127,-0.5116,-0.509,-0.5239,-0.5239,-0.5239,-0.5239,-0.5207,-0.5197,-0.5258,-0.5287,-0.5314,-0.5299,-0.5371,-0.5373,-0.5369,-0.5375,-0.535,-0.5313,-0.5302,-0.5295,-0.528,-0.5256,-0.5444,-0.5444,-0.5444,-0.5304,-0.5296,-0.5361,-0.5354,-0.5371,-0.5386,-0.5454,-0.549,-0.5477,-0.5452,-0.5381,-0.5372,-0.5312,-0.5292,-0.5271,-0.5247,-0.5202,0,0]}]]